Weather History for King Salmon, AK

Change the Weather History Date:

Wednesday, May 8, 2013

  Actual Average Record
Temperature  
Mean Temperature 42 °F 42 °F  
Max Temperature 56 °F 51 °F 73 °F (1981)
Min Temperature 27 °F 33 °F 20 °F (1952)
Degree Days  
Heating Degree Days 23 23  
Month to date heating degree days 232 193  
Since 1 July heating degree days 10528 10016  
Cooling Degree Days 0    
Month to date cooling degree days 0  
Year to date cooling degree days 0  
Moisture  
Dew Point 30 °F    
Average Humidity 0    
Maximum Humidity 0    
Minimum Humidity 0    
Precipitation  
Precipitation 0.00 in 0.04 in 0.36 in (1973)
Month to date precipitation 0.18 0.28  
Year to date precipitation 6.21 3.73  
Snow  
Snow 0.00 in 0.00 in 1.50 in (1963)
Month to date snowfall 0.6 0.3  
Since 1 July snowfall 75.1 46.1  
Snow Depth 0.00 in    
Sea Level Pressure  
Sea Level Pressure 30.20 in    
Wind  
Wind Speed 3 mph (ENE)    
Max Wind Speed 12 mph    
Max Gust Speed 15 mph    
Visibility 10 miles    
Events      
T = Trace of Precipitation, MM = Missing Value Source: NWS Daily Summary

Daily Weather History Graph

Daily Weather History Graph

Search for Another Location

Airport:

Trip Planner

Search our weather history database for the weather conditions in past years. The results will help you decide how hot, cold, wet, or windy it might be!

Date:

Astronomy

May. 08, 2013 Rise Set
Actual Time 6:12 AM AKDT 10:35 PM AKDT
Civil Twilight 5:18 AM AKDT 11:29 PM AKDT
Nautical Twilight 3:50 AM AKDT 1:00 AM AKDT
Astronomical Twilight Sun does not rise Sun does not rise
Moon 5:45 AM AKDT (5/8) 9:33 PM AKDT (5/8)
Length of Visible Light 18h 10m
Length of Day
16h 22m
Waning Crescent, 1% of the Moon is Illuminated
May 8
Waning Crescent
May 9
New
May 17
First Quarter
May 24
Full
May 31
Last Quarter

Hourly Weather History & Observations

Time (AKDT) Temp. Windchill Dew Point Humidity Pressure Visibility Wind Dir Wind Speed Gust Speed Precip Events Conditions
12:54 AM 37.9 °F - 33.1 °F 83% 30.23 in 10.0 mi Calm Calm - N/A   Overcast
1:54 AM 37.0 °F - 32.0 °F 82% 30.24 in 10.0 mi Calm Calm - N/A   Overcast
2:54 AM 35.1 °F - 32.0 °F 89% 30.23 in 10.0 mi Calm Calm - N/A   Overcast
3:54 AM 33.1 °F - 30.9 °F 92% 30.23 in 10.0 mi Calm Calm - N/A   Mostly Cloudy
4:54 AM 32.0 °F - 30.0 °F 92% 30.23 in 10.0 mi Calm Calm - N/A   Scattered Clouds
5:54 AM 30.0 °F - 28.9 °F 96% 30.22 in 10.0 mi Calm Calm - N/A   Partly Cloudy
6:54 AM 28.0 °F 24.2 °F 27.0 °F 96% 30.23 in 10.0 mi ENE 3.5 mph - N/A   Partly Cloudy
7:54 AM 34.0 °F - 32.0 °F 92% 30.23 in 10.0 mi Calm Calm - N/A   Mostly Cloudy
8:54 AM 37.9 °F - 33.1 °F 83% 30.23 in 10.0 mi Calm Calm - N/A   Mostly Cloudy
9:54 AM 42.1 °F 39.2 °F 30.9 °F 65% 30.23 in 10.0 mi Variable 4.6 mph - N/A   Overcast
10:54 AM 46.0 °F 42.5 °F 28.0 °F 50% 30.23 in 10.0 mi East 6.9 mph - N/A   Overcast
11:54 AM 46.9 °F - 27.0 °F 46% 30.23 in 10.0 mi Variable 4.6 mph - N/A   Overcast
12:54 PM 48.0 °F - 28.0 °F 46% 30.22 in 10.0 mi East 4.6 mph - N/A   Mostly Cloudy
1:54 PM 50.0 °F - 28.9 °F 44% 30.21 in 10.0 mi Calm Calm - N/A   Mostly Cloudy
2:54 PM 53.1 °F - 28.9 °F 40% 30.20 in 10.0 mi Calm Calm - N/A   Mostly Cloudy
3:54 PM 55.0 °F - 28.9 °F 37% 30.18 in 10.0 mi Variable 5.8 mph - N/A   Mostly Cloudy
4:54 PM 53.1 °F - 28.0 °F 38% 30.17 in 10.0 mi Calm Calm - N/A   Mostly Cloudy
5:54 PM 53.1 °F - 30.0 °F 41% 30.16 in 10.0 mi NNE 6.9 mph - N/A   Mostly Cloudy
6:54 PM 53.1 °F - 28.9 °F 40% 30.15 in 10.0 mi Calm Calm - N/A   Scattered Clouds
7:54 PM 53.1 °F - 28.9 °F 40% 30.14 in 10.0 mi North 5.8 mph - N/A   Mostly Cloudy
8:54 PM 51.1 °F - 30.9 °F 46% 30.14 in 10.0 mi North 8.1 mph - N/A   Mostly Cloudy
9:54 PM 48.0 °F - 30.9 °F 52% 30.14 in 10.0 mi NNE 6.9 mph - N/A   Mostly Cloudy
10:54 PM 44.1 °F 39.5 °F 28.9 °F 55% 30.15 in 10.0 mi ESE 8.1 mph - N/A   Mostly Cloudy
11:54 PM 41.0 °F 35.8 °F 30.9 °F 67% 30.16 in 10.0 mi SE 8.1 mph - N/A   Mostly Cloudy